Météo par heure à Juszowice

Ce jour, 20 Juin, Dimanche

Heure Température Précipitation Vent Pression Humidité
00:00 +23°C° 0 mm 2 m/s 746 mmHg 72%
01:00 +23°C° 0 mm 2 m/s 746 mmHg 73%
02:00 +21°C° 0 mm 3 m/s 746 mmHg 74%
03:00 +21°C° 0 mm 3 m/s 745 mmHg 75%
04:00 +21°C° 0 mm 3 m/s 745 mmHg 76%
05:00 +22°C° 0 mm 3 m/s 745 mmHg 72%
06:00 +23°C° 0 mm 4 m/s 745 mmHg 69%
07:00 +26°C° 0 mm 4 m/s 745 mmHg 65%
08:00 +28°C° 0 mm 4 m/s 745 mmHg 60%
09:00 +29°C° 0 mm 4 m/s 745 mmHg 54%
10:00 +32°C° 0 mm 4 m/s 746 mmHg 48%
11:00 +33°C° 0 mm 3 m/s 745 mmHg 45%
12:00 +34°C° 0 mm 3 m/s 745 mmHg 41%
13:00 +35°C° 0 mm 3 m/s 745 mmHg 38%
14:00 +35°C° 0 mm 3 m/s 744 mmHg 39%
15:00 +34°C° 0 mm 3 m/s 744 mmHg 40%
16:00 +34°C° 0 mm 3 m/s 744 mmHg 41%
17:00 +30°C° 0.9 mm 3 m/s 744 mmHg 51%
18:00 +27°C° 0.9 mm 4 m/s 743 mmHg 61%
19:00 +23°C° 0.9 mm 4 m/s 743 mmHg 72%
20:00 +24°C° 0.1 mm 3 m/s 743 mmHg 73%
21:00 +22°C° 0.1 mm 3 m/s 743 mmHg 75%
22:00 +23°C° 0.1 mm 2 m/s 743 mmHg 76%
23:00 +21°C° 0 mm 2 m/s 743 mmHg 79%

Demain, 21 Juin, Lundi

Heure Température Précipitation Vent Pression Humidité
00:00 +21°C° 0 mm 2 m/s 743 mmHg 81%
01:00 +20°C° 0 mm 2 m/s 742 mmHg 84%
02:00 +20°C° 0 mm 2 m/s 742 mmHg 85%
03:00 +20°C° 0 mm 3 m/s 742 mmHg 86%
04:00 +20°C° 0 mm 3 m/s 742 mmHg 88%
05:00 +21°C° 0 mm 3 m/s 742 mmHg 81%
06:00 +24°C° 0 mm 3 m/s 742 mmHg 75%
07:00 +26°C° 0 mm 2 m/s 742 mmHg 69%
08:00 +28°C° 0 mm 2 m/s 742 mmHg 63%
09:00 +30°C° 0 mm 2 m/s 742 mmHg 56%
10:00 +32°C° 0 mm 2 m/s 742 mmHg 50%
11:00 +32°C° 0 mm 2 m/s 742 mmHg 49%
12:00 +32°C° 0 mm 2 m/s 742 mmHg 48%
13:00 +32°C° 0 mm 2 m/s 742 mmHg 46%
14:00 +30°C° 1.8 mm 3 m/s 742 mmHg 58%
15:00 +27°C° 1.8 mm 4 m/s 742 mmHg 70%
16:00 +25°C° 1.8 mm 4 m/s 742 mmHg 82%
17:00 +22°C° 5.7 mm 4 m/s 742 mmHg 85%
18:00 +21°C° 5.7 mm 3 m/s 743 mmHg 88%
19:00 +20°C° 5.7 mm 3 m/s 743 mmHg 92%
20:00 +19°C° 0.2 mm 2 m/s 743 mmHg 92%
21:00 +19°C° 0.2 mm 2 m/s 744 mmHg 92%
22:00 +20°C° 0.2 mm 1 m/s 744 mmHg 93%
23:00 +20°C° 0 mm 1 m/s 744 mmHg 93%

Après-demain, 22 Juin, Mardi

Heure Température Précipitation Vent Pression Humidité
00:00 +18°C° 0 mm 2 m/s 744 mmHg 93%
01:00 +18°C° 0 mm 2 m/s 744 mmHg 94%
02:00 +18°C° 0 mm 2 m/s 744 mmHg 95%
03:00 +18°C° 0 mm 2 m/s 744 mmHg 96%
04:00 +18°C° 0 mm 2 m/s 744 mmHg 97%
05:00 +18°C° 0 mm 2 m/s 745 mmHg 95%
06:00 +19°C° 0 mm 3 m/s 745 mmHg 92%
07:00 +19°C° 0 mm 3 m/s 746 mmHg 90%
08:00 +20°C° 0 mm 3 m/s 746 mmHg 84%
09:00 +21°C° 0 mm 3 m/s 746 mmHg 78%
10:00 +22°C° 0 mm 3 m/s 746 mmHg 72%
11:00 +24°C° 0 mm 3 m/s 746 mmHg 68%
12:00 +25°C° 0 mm 3 m/s 746 mmHg 65%
13:00 +26°C° 0 mm 3 m/s 746 mmHg 61%
14:00 +26°C° 0 mm 3 m/s 746 mmHg 62%
15:00 +26°C° 0 mm 3 m/s 746 mmHg 62%
16:00 +26°C° 0 mm 3 m/s 746 mmHg 63%
17:00 +25°C° 0 mm 2 m/s 746 mmHg 66%
18:00 +25°C° 0 mm 2 m/s 747 mmHg 69%
19:00 +24°C° 0 mm 2 m/s 747 mmHg 72%
20:00 +23°C° 0 mm 2 m/s 747 mmHg 74%
21:00 +21°C° 0 mm 3 m/s 747 mmHg 77%
22:00 +20°C° 0 mm 3 m/s 747 mmHg 79%
23:00 +19°C° 0 mm 3 m/s 747 mmHg 77%

23 Juin, Mercredi

Heure Température Précipitation Vent Pression Humidité
00:00 +19°C° 0 mm 3 m/s 748 mmHg 75%
01:00 +18°C° 0 mm 3 m/s 748 mmHg 74%
02:00 +18°C° 0 mm 3 m/s 748 mmHg 75%
03:00 +17°C° 0 mm 2 m/s 748 mmHg 76%
04:00 +17°C° 0 mm 2 m/s 748 mmHg 77%
05:00 +18°C° 0.2 mm 2 m/s 748 mmHg 78%
06:00 +18°C° 0.2 mm 2 m/s 749 mmHg 78%
07:00 +19°C° 0.2 mm 3 m/s 749 mmHg 79%
08:00 +20°C° 0.1 mm 3 m/s 749 mmHg 76%
09:00 +20°C° 0.1 mm 3 m/s 750 mmHg 74%
10:00 +21°C° 0.1 mm 3 m/s 750 mmHg 71%
11:00 +22°C° 0.1 mm 3 m/s 750 mmHg 69%
12:00 +25°C° 0.1 mm 3 m/s 750 mmHg 66%
13:00 +26°C° 0.1 mm 3 m/s 750 mmHg 63%
14:00 +26°C° 0.1 mm 3 m/s 750 mmHg 63%
15:00 +26°C° 0.1 mm 2 m/s 750 mmHg 63%
16:00 +26°C° 0.1 mm 2 m/s 750 mmHg 63%
17:00 +25°C° 0.3 mm 2 m/s 750 mmHg 70%
18:00 +24°C° 0.3 mm 2 m/s 750 mmHg 76%
19:00 +23°C° 0.3 mm 2 m/s 750 mmHg 82%
20:00 +23°C° 0 mm 2 m/s 750 mmHg 83%
21:00 +21°C° 0 mm 2 m/s 750 mmHg 84%
22:00 +22°C° 0 mm 1 m/s 750 mmHg 84%
23:00 +21°C° 0 mm 1 m/s 750 mmHg 85%

24 Juin, Jeudi

Heure Température Précipitation Vent Pression Humidité
00:00 +21°C° 0 mm 1 m/s 750 mmHg 85%
01:00 +21°C° 0 mm 1 m/s 750 mmHg 86%
02:00 +21°C° 0 mm 1 m/s 750 mmHg 86%
03:00 +19°C° 0 mm 2 m/s 749 mmHg 86%
04:00 +19°C° 0 mm 2 m/s 749 mmHg 86%
05:00 +20°C° 0 mm 2 m/s 749 mmHg 83%
06:00 +21°C° 0 mm 1 m/s 749 mmHg 79%
07:00 +22°C° 0 mm 1 m/s 749 mmHg 76%
08:00 +23°C° 0.4 mm 1 m/s 749 mmHg 75%
09:00 +23°C° 0.4 mm 2 m/s 749 mmHg 74%
10:00 +24°C° 0.4 mm 2 m/s 749 mmHg 73%
11:00 +25°C° 0.3 mm 2 m/s 749 mmHg 71%
12:00 +26°C° 0.3 mm 2 m/s 748 mmHg 70%
13:00 +26°C° 0.3 mm 3 m/s 748 mmHg 69%
14:00 +26°C° 1 mm 3 m/s 748 mmHg 72%
15:00 +26°C° 1 mm 3 m/s 748 mmHg 75%
16:00 +25°C° 1 mm 3 m/s 747 mmHg 78%
17:00 +24°C° 1 mm 3 m/s 747 mmHg 81%
18:00 +24°C° 1 mm 3 m/s 747 mmHg 85%
19:00 +22°C° 1 mm 3 m/s 746 mmHg 88%
20:00 +20°C° 0.5 mm 3 m/s 746 mmHg 91%
21:00 +19°C° 0.5 mm 3 m/s 746 mmHg 93%
22:00 +18°C° 0.5 mm 2 m/s 746 mmHg 96%
23:00 +18°C° 0 mm 2 m/s 746 mmHg 96%

25 Juin, Vendredi

Heure Température Précipitation Vent Pression Humidité
00:00 +18°C° 0 mm 2 m/s 746 mmHg 97%
01:00 +17°C° 0 mm 2 m/s 746 mmHg 97%
02:00 +17°C° 0.2 mm 2 m/s 746 mmHg 97%
03:00 +17°C° 0.2 mm 2 m/s 746 mmHg 97%
04:00 +17°C° 0.2 mm 2 m/s 746 mmHg 97%
05:00 +18°C° 1.6 mm 2 m/s 746 mmHg 97%
06:00 +18°C° 1.6 mm 2 m/s 746 mmHg 96%
07:00 +18°C° 1.6 mm 3 m/s 746 mmHg 96%
08:00 +18°C° 0.8 mm 3 m/s 746 mmHg 94%
09:00 +18°C° 0.8 mm 3 m/s 746 mmHg 93%
10:00 +18°C° 0.8 mm 2 m/s 746 mmHg 92%
11:00 +19°C° 0.4 mm 3 m/s 746 mmHg 90%
12:00 +19°C° 0.4 mm 3 m/s 747 mmHg 88%
13:00 +20°C° 0.4 mm 4 m/s 747 mmHg 86%
14:00 +20°C° 0.3 mm 4 m/s 747 mmHg 85%
15:00 +20°C° 0.3 mm 4 m/s 747 mmHg 83%
16:00 +20°C° 0.3 mm 4 m/s 747 mmHg 81%
17:00 +20°C° 0.4 mm 4 m/s 747 mmHg 84%
18:00 +19°C° 0.4 mm 4 m/s 747 mmHg 87%
19:00 +19°C° 0.4 mm 4 m/s 747 mmHg 89%
20:00 +18°C° 0.3 mm 4 m/s 747 mmHg 92%
21:00 +17°C° 0.3 mm 3 m/s 748 mmHg 94%
22:00 +16°C° 0.3 mm 3 m/s 748 mmHg 96%
23:00 +16°C° 0 mm 3 m/s 748 mmHg 96%
Voir plus

Nous avons besoin de votre consentement

Meteoprog et ses fournisseurs de services peuvent stocker et accéder à des données personnelles telles que des cookies, des identifiants d'appareils ou d'autres technologies similaires sur votre appareil et traiter ces données pour personnaliser le contenu et les publicités, ainsi que pour fournir des fonctionnalités de médias sociaux et analyser le trafic.

  • Stocker et/ou accéder à des informations sur votre appareil

    Des cookies, des identifiants d'appareils ou d'autres informations peuvent être stockés ou accessibles sur votre appareil aux fins indiquées ci-dessus.

  • Annonces et contenus personnalisés, mesure des annonces et des contenus, connaissance de l'audience et développement de produits

    Les annonces et le contenu peuvent être personnalisés en fonction d'un profil. D'autres données peuvent être ajoutées pour mieux personnaliser les annonces et le contenu. Les performances des publicités et du contenu peuvent être mesurées. Il est possible d'obtenir des informations sur le public qui a vu les publicités et le contenu. Ces données peuvent être utilisées pour développer ou améliorer l'expérience de l'utilisateur, les systèmes et les logiciels.

En cliquant sur "J'accepte", vous autorisez l'utilisation de cookies, des identifiants d'appareils, des balises web ou d'autres technologies similaires. Vos paramètres peuvent être modifiés dans le navigateur de votre appareil.

Dans certains cas, des intérêts légitimes peuvent être invoqués plutôt qu'un consentement. Vous pouvez en savoir plus à ce sujet dans notre Politique de confidentialité et de cookies.